This is the latest recevied weather packets stored in our database for station/object W5ITZ. If no packets are shown the sender has not sent any weather packets the latest 10 day(s).
| Time | Temp. | Humidity | Pressure | Rain* | Wind** | Luminosity | Snow |
|---|---|---|---|---|---|---|---|
| 1777555704 | 20.56° C | 93% | 1010.9 hPa | 0 mm | - | 57 W/m² | - |
| 1777555401 | 20.56° C | 93% | 1010.8 hPa | 0 mm | - | 65 W/m² | - |
| 1777555097 | 20.56° C | 93% | 1010.5 hPa | 0 mm | - | 111 W/m² | - |
| 1777554795 | 20.56° C | 93% | 1010.9 hPa | 0 mm | - | 109 W/m² | - |
| 1777554492 | 20.56° C | 93% | 1010.5 hPa | 0 mm | - | 59 W/m² | - |
| 1777554189 | 20.56° C | 93% | 1010.4 hPa | 0 mm | - | 48 W/m² | - |
| 1777553885 | 20.56° C | 93% | 1010.2 hPa | 0 mm | - | 48 W/m² | - |
| 1777553582 | 20° C | 93% | 1010.3 hPa | 0 mm | - | 63 W/m² | - |
| 1777553277 | 20° C | 94% | 1010.3 hPa | 0 mm | - | 54 W/m² | - |
| 1777552974 | 20° C | 93% | 1010.2 hPa | 0 mm | - | 36 W/m² | - |
| 1777552668 | 20° C | 94% | 1010.2 hPa | 0 mm | - | 29 W/m² | - |
| 1777552366 | 20° C | 94% | 1010.5 hPa | 0 mm | - | 24 W/m² | - |
| 1777552062 | 20° C | 94% | 1010 hPa | 0 mm | - | 18 W/m² | - |
| 1777551759 | 20° C | 94% | 1010.1 hPa | 0 mm | - | 16 W/m² | - |
| 1777551456 | 20° C | 94% | 1009.9 hPa | 0 mm | - | 15 W/m² | - |
| 1777551153 | 20° C | 94% | 1010.1 hPa | 0 mm | - | 12 W/m² | - |
| 1777550850 | 20° C | 94% | 1009.9 hPa | 0 mm | - | 12 W/m² | - |
| 1777550547 | 20° C | 94% | 1009.8 hPa | 0 mm | - | 9 W/m² | - |
| 1777550243 | 19.44° C | 94% | 1009.7 hPa | 0 mm | - | 6 W/m² | - |
| 1777549939 | 19.44° C | 94% | 1009.9 hPa | 0 mm | - | 4 W/m² | - |
| 1777549636 | 19.44° C | 94% | 1009.4 hPa | 0 mm | - | 2 W/m² | - |
| 1777549331 | 19.44° C | 94% | 1009.4 hPa | 0 mm | - | 1 W/m² | - |
| 1777549029 | 19.44° C | 94% | 1009.6 hPa | 0 mm | - | 1 W/m² | - |
| 1777548725 | 19.44° C | 94% | 1009.5 hPa | 0 mm | - | 0 W/m² | - |
| 1777548422 | 19.44° C | 93% | 1009.3 hPa | 0 mm | - | 0 W/m² | - |
* Rain latest hour (hover to see other rain measurements)
** Current wind speed in m/s (hover to see current wind gust speed)